Regional Weather Roundup
Issued by NWS Little Rock, AR

Home | Current Version | Previous Version | Graphics & Text | Print | Product List | Glossary On
Versions: 1 2 3 4 5 6 7 8 9 10 11 12 13 14 15 16 17 18 19 20 21 22 23 24 25 26 27 28 29 30 31
000
ASUS44 KLZK 170205
RWRLZK

WEATHER ROUNDUP FOR ARKANSAS
NATIONAL WEATHER SERVICE LITTLE ROCK AR
800 PM CST THU NOV 16 2017

NOTE: "FAIR" INDICATES FEW OR NO CLOUDS BELOW 12,000 FEET WITH NO
SIGNIFICANT WEATHER AND/OR OBSTRUCTIONS TO VISIBILITY.

ARZ001-003-010-029-170300-
NORTHWEST ARKANSAS

CITY           SKY/WX    TMP DP  RH WIND       PRES   REMARKS
FAYETTEVILLE   MOCLDY    50  45  83 CALM      30.08S
FORT SMITH     CLOUDY    59  47  64 E7        30.08F
HARRISON       CLEAR     48  40  73 SE6       30.10F
BENTONVILLE    PTCLDY    55  44  66 SE8       30.08F
ROGERS         MOCLDY    55  44  66 SE12      30.08F
SILOAM SPGS    CLOUDY    56  45  66 SE9       30.07S
HIGHFILL       CLOUDY    56  45  66 SE9       30.07F
SPRINGDALE     CLOUDY    54  45  71 SE6       30.09F
$$

ARZ004-005-016-170300-
NORTH CENTRAL ARKANSAS

CITY           SKY/WX    TMP DP  RH WIND       PRES   REMARKS
BATESVILLE     CLEAR     45  40  82 CALM      30.17S
FLIPPIN        CLEAR     49  38  65 SE3       30.13S
MTN HOME       CLEAR     50  38  63 SE6       30.13R
$$

ARZ040-041-170300-
WEST CENTRAL ARKANSAS

CITY           SKY/WX    TMP DP  RH WIND       PRES   REMARKS
MENA           CLOUDY    59  50  72 CALM      30.11S
MOUNT IDA      CLOUDY    58  47  66 E5        30.10S
$$

ARZ009-017-025-026-028-170300-
NORTHEAST ARKANSAS

CITY           SKY/WX    TMP DP  RH WIND       PRES   REMARKS
CORNING        FAIR      43  39  87 E8        30.19S
JONESBORO      CLEAR     46  41  82 NE7       30.18R
NEWPORT        CLEAR     45  41  86 E7        30.18R
WALNUT RIDGE   CLEAR     43  40  89 E6        30.18S
BLYTHEVILLE    CLEAR     43  40  89 NE7       30.19S
$$

ARZ022-023-033-042-044-170300-
CENTRAL ARKANSAS

CITY           SKY/WX    TMP DP  RH WIND       PRES   REMARKS
LITTLE ROCK    CLOUDY    56  53  90 SE3       30.16R
N LITTLE ROCK    N/A     56  51  84 S5        30.17R
JACKSONVILLE   CLEAR     52  51  99 CALM      30.15R
HOT SPRINGS    CLOUDY    58  48  69 E5        30.15R
RUSSELLVILLE   MOCLDY    56  46  69 E3        30.12F
CLINTON        MOCLDY    43  43 100 CALM      30.16R
$$

ARZ036-170300-
EAST ARKANSAS

CITY           SKY/WX    TMP DP  RH WIND       PRES   REMARKS
WEST MEMPHIS   CLEAR     49  44  83 N3        30.16R
$$

ARZ050-053-066-070-073-170300-
SOUTHWEST ARKANSAS

CITY           SKY/WX    TMP DP  RH WIND       PRES   REMARKS
ARKADELPHIA    CLOUDY    58  49  72 NE5       30.14R
CAMDEN         CLOUDY    59  52  77 E5        30.13S
TEXARKANA      CLOUDY    56  52  86 E6        30.09F
EL DORADO      CLOUDY    59  59 100 E3        30.13R
DE QUEEN       CLOUDY    58  50  75 E8        30.08F
$$

ARZ056-057-069-170300-
SOUTHEAST ARKANSAS

CITY           SKY/WX    TMP DP  RH WIND       PRES   REMARKS
PINE BLUFF     MOCLDY    56  51  84 NE3       30.14S
STUTTGART      CLOUDY    52  50  93 E5        30.15S
MONTICELLO     CLOUDY    59  53  80 CALM      30.14R

$$






USA.gov is the U.S. government's official web portal to all federal, state and local government web resources and services.